Regional Weather Roundup
Issued by NWS Columbia, SC

Home | Current Version | Previous Version | Text Only | Print | Product List | Glossary On
Versions: 1 2 3 4 5 6 7 8 9 10 11 12 13 14 15 16 17 18 19 20 21 22 23 24 25 26 27 28 29 30 31 32 33 34 35 36 37 38 39 40 41 42 43 44 45 46 47 48 49 50
000
ASUS42 KCAE 021310
RWRCAE
SOUTH CAROLINA REGIONAL WEATHER ROUNDUP
NATIONAL WEATHER SERVICE COLUMBIA SC
900 AM EDT WED SEP 02 2015

Note: "fair" indicates few or no clouds below 12,000 feet with no
significant weather and/or obstructions to visibility.

SCZ003-006-007-009-010-021400-
UPSTATE

CITY           SKY/WX    TMP DP  RH WIND       PRES   REMARKS
ANDERSON       SUNNY     75  71  87 CALM      30.13F
CLEMSON        SUNNY     77  70  79 CALM      30.15S
GREENVILLE     SUNNY     78  67  68 NW3       30.14S
GREENWOOD      SUNNY     77  71  82 CALM      30.14S
GREER          SUNNY     77  69  76 CALM      30.12S
ROCK HILL      SUNNY     77  69  76 CALM      30.12S
$$

SCZ027-028-031-032-036-021400-
CENTRAL

CITY           SKY/WX    TMP DP  RH WIND       PRES   REMARKS
COLUMBIA APT   PTSUNNY   78  71  79 W3        30.10S
COLUMBIA OWENS SUNNY     79  71  76 CALM      30.11F
MCENTIRE ANGB  PTSUNNY   77  74  89 NW1       30.11S
ORANGEBURG     SUNNY     77  73  87 NW3       30.11S
SUMTER SHAW    SUNNY     78  73  84 W5        30.09S
$$

SCZ034-044-045-048-050-021400-
COAST

CITY           SKY/WX    TMP DP  RH WIND       PRES   REMARKS
CHARLESTON APT PTSUNNY   80  75  84 NW6       30.10S
BEAUFORT       PTSUNNY   78  76  93 N5        30.11R FOG
$$



USA.gov is the U.S. government's official web portal to all federal, state and local government web resources and services.